| time (UTC) | temp C | wind direction | speed KPH | gust KPH | rain 1hr cm | rain 24hr cm | rain mn cm | humidity % | barometer mb |
| 20260505225004 | 11 | 269 | 4.8 | 12.9 | 0.00 | 0.00 | 0.00 | 45 | 1023.9 |
| 20260505224003 | 12 | 291 | 4.8 | 12.9 | 0.00 | 0.00 | 0.00 | 46 | 1023.9 |
| 20260505223004 | 12 | 272 | 6.4 | 12.9 | 0.00 | 0.00 | 0.00 | 46 | 1023.8 |
| 20260505222003 | 12 | 277 | 6.4 | 14.5 | 0.00 | 0.00 | 0.00 | 46 | 1023.9 |
| 20260505221004 | 12 | 271 | 9.7 | 14.5 | 0.00 | 0.00 | 0.00 | 46 | 1023.6 |
| 20260505220003 | 12 | 286 | 6.4 | 22.5 | 0.00 | 0.00 | 0.00 | 47 | 1023.6 |
| 20260505215004 | 12 | 286 | 4.8 | 17.7 | 0.00 | 0.00 | 0.00 | 47 | 1023.5 |
| 20260505214004 | 12 | 275 | 8.0 | 17.7 | 0.00 | 0.00 | 0.00 | 48 | 1023.4 |
| 20260505213003 | 12 | 280 | 11.3 | 19.3 | 0.00 | 0.00 | 0.00 | 49 | 1023.4 |
| 20260505212004 | 12 | 281 | 11.3 | 19.3 | 0.00 | 0.00 | 0.00 | 50 | 1023.4 |
| 20260505211003 | 13 | 303 | 11.3 | 25.7 | 0.00 | 0.00 | 0.00 | 50 | 1023.3 |
| 20260505210003 | 13 | 306 | 8.0 | 27.4 | 0.00 | 0.00 | 0.00 | 50 | 1023.1 |
| 20260505205003 | 13 | 303 | 11.3 | 24.1 | 0.00 | 0.00 | 0.00 | 50 | 1023.1 |
| 20260505204003 | 13 | 279 | 8.0 | 22.5 | 0.00 | 0.00 | 0.00 | 50 | 1023.1 |
| 20260505203004 | 13 | 300 | 12.9 | 20.9 | 0.00 | 0.00 | 0.00 | 51 | 1023.0 |
| 20260505202004 | 13 | 288 | 11.3 | 24.1 | 0.00 | 0.00 | 0.00 | 51 | 1023.0 |
| 20260505201003 | 13 | 298 | 8.0 | 19.3 | 0.00 | 0.00 | 0.00 | 52 | 1022.9 |
| 20260505200003 | 13 | 294 | 11.3 | 17.7 | 0.00 | 0.00 | 0.00 | 52 | 1022.9 |
| 20260505195004 | 13 | 283 | 6.4 | 19.3 | 0.00 | 0.00 | 0.00 | 52 | 1022.9 |
| 20260505194005 | 13 | 283 | 6.4 | 20.9 | 0.00 | 0.00 | 0.00 | 52 | 1022.9 |
| 20260505193005 | 13 | 306 | 6.4 | 17.7 | 0.00 | 0.00 | 0.00 | 52 | 1022.8 |
| 20260505192005 | 13 | 290 | 8.0 | 16.1 | 0.00 | 0.00 | 0.00 | 52 | 1022.9 |
| 20260505191006 | 13 | 290 | 8.0 | 17.7 | 0.00 | 0.00 | 0.00 | 52 | 1022.7 |
| 20260505190005 | 14 | 289 | 4.8 | 17.7 | 0.00 | 0.00 | 0.00 | 51 | 1022.6 |
| 20260505185005 | 14 | 299 | 9.7 | 17.7 | 0.00 | 0.00 | 0.00 | 51 | 1022.6 |
| 20260505184006 | 14 | 289 | 9.7 | 14.5 | 0.00 | 0.00 | 0.00 | 51 | 1022.7 |
| 20260505183005 | 14 | 294 | 6.4 | 16.1 | 0.00 | 0.00 | 0.00 | 51 | 1022.8 |
| 20260505182005 | 14 | 301 | 9.7 | 19.3 | 0.00 | 0.00 | 0.00 | 50 | 1022.9 |
| 20260505181006 | 14 | 303 | 8.0 | 19.3 | 0.00 | 0.00 | 0.00 | 50 | 1022.8 |
| 20260505180005 | 15 | 304 | 6.4 | 25.7 | 0.00 | 0.00 | 0.00 | 48 | 1022.9 |
| 20260505175005 | 15 | 294 | 9.7 | 27.4 | 0.00 | 0.00 | 0.00 | 47 | 1022.8 |
| 20260505174006 | 15 | 285 | 6.4 | 22.5 | 0.00 | 0.00 | 0.00 | 47 | 1022.8 |
| 20260505173005 | 15 | 295 | 11.3 | 22.5 | 0.00 | 0.00 | 0.00 | 47 | 1022.8 |
| 20260505172005 | 15 | 301 | 9.7 | 22.5 | 0.00 | 0.00 | 0.00 | 46 | 1022.8 |
| 20260505171006 | 15 | 291 | 11.3 | 20.9 | 0.00 | 0.00 | 0.00 | 46 | 1022.6 |
| 20260505170005 | 14 | 304 | 6.4 | 17.7 | 0.00 | 0.00 | 0.00 | 48 | 1022.6 |
| 20260505165005 | 14 | 303 | 4.8 | 12.9 | 0.00 | 0.00 | 0.00 | 50 | 1022.5 |
| 20260505164005 | 13 | 307 | 4.8 | 8.0 | 0.00 | 0.00 | 0.00 | 52 | 1022.4 |
| 20260505163006 | 14 | 297 | 3.2 | 6.4 | 0.00 | 0.00 | 0.00 | 52 | 1022.4 |
| 20260505162005 | 14 | 304 | 3.2 | 8.0 | 0.00 | 0.00 | 0.00 | 50 | 1022.4 |
| 20260505161005 | 15 | 299 | 3.2 | 11.3 | 0.00 | 0.00 | 0.00 | 49 | 1022.3 |
| 20260505153005 | 15 | 310 | 4.8 | 14.5 | 0.00 | 0.00 | 0.00 | 45 | 1022.4 |
| 20260505152005 | 14 | 326 | 6.4 | 9.7 | 0.00 | 0.00 | 0.00 | 48 | 1022.4 |
| 20260505151005 | 14 | 334 | 3.2 | 8.0 | 0.00 | 0.00 | 0.00 | 51 | 1022.2 |
| 20260505125004 | 16 | 351 | 3.2 | 6.4 | 0.00 | 0.00 | 0.00 | 59 | 1022.2 |
| 20260505124005 | 16 | 11 | 1.6 | 6.4 | 0.00 | 0.00 | 0.00 | 59 | 1022.2 |
| 20260505123005 | 16 | 346 | 3.2 | 6.4 | 0.00 | 0.00 | 0.00 | 59 | 1022.3 |
| 20260505122005 | 16 | 349 | 1.6 | 8.0 | 0.00 | 0.00 | 0.00 | 59 | 1022.1 |
| 20260505121004 | 16 | 353 | 3.2 | 8.0 | 0.00 | 0.00 | 0.00 | 59 | 1022.2 |
| 20260505120005 | 16 | 2 | 3.2 | 6.4 | 0.00 | 0.00 | 0.00 | 59 | 1022.1 |
| 20260505115005 | 16 | 342 | 3.2 | 9.7 | 0.00 | 0.00 | 0.00 | 59 | 1022.2 |
| 20260505114004 | 16 | 347 | 3.2 | 6.4 | 0.00 | 0.00 | 0.00 | 59 | 1022.1 |
| 20260505113005 | 17 | 349 | 1.6 | 9.7 | 0.00 | 0.00 | 0.00 | 59 | 1022.0 |
| 20260505112004 | 17 | 352 | 4.8 | 8.0 | 0.00 | 0.00 | 0.00 | 60 | 1021.9 |
| 20260505111004 | 17 | 354 | 3.2 | 8.0 | 0.00 | 0.00 | 0.00 | 63 | 1021.9 |
| 20260505102004 | 18 | 357 | 4.8 | 8.0 | 0.00 | 0.00 | 0.00 | 63 | 1021.3 |
| 20260505101005 | 18 | 5 | 3.2 | 11.3 | 0.00 | 0.00 | 0.00 | 61 | 1021.3 |
| 20260505100005 | 18 | 24 | 3.2 | 12.9 | 0.00 | 0.00 | 0.00 | 61 | 1021.2 |
| 20260505095004 | 19 | 28 | 6.4 | 14.5 | 0.00 | 0.00 | 0.00 | 59 | 1021.1 |
| 20260505094005 | 19 | 27 | 6.4 | 12.9 | 0.00 | 0.00 | 0.00 | 57 | 1021.0 |
| 20260505093005 | 20 | 38 | 3.2 | 16.1 | 0.00 | 0.00 | 0.00 | 55 | 1021.1 |
| 20260505092004 | 20 | 7 | 8.0 | 19.3 | 0.00 | 0.00 | 0.00 | 54 | 1021.0 |
| 20260505091005 | 20 | 25 | 4.8 | 19.3 | 0.00 | 0.00 | 0.00 | 53 | 1020.9 |
| 20260505090004 | 21 | 35 | 11.3 | 17.7 | 0.00 | 0.00 | 0.00 | 50 | 1020.9 |
| 20260505085005 | 22 | 20 | 3.2 | 14.5 | 0.00 | 0.00 | 0.00 | 49 | 1020.7 |
| 20260505084004 | 22 | 28 | 8.0 | 19.3 | 0.00 | 0.00 | 0.00 | 50 | 1020.6 |
| 20260505083005 | 22 | 41 | 6.4 | 20.9 | 0.00 | 0.00 | 0.00 | 50 | 1020.7 |
| 20260505082004 | 22 | 343 | 11.3 | 19.3 | 0.00 | 0.00 | 0.00 | 49 | 1020.6 |
| 20260505081005 | 22 | 12 | 12.9 | 19.3 | 0.00 | 0.00 | 0.00 | 45 | 1020.7 |
| 20260505080004 | 24 | 5 | 8.0 | 24.1 | 0.00 | 0.00 | 0.00 | 41 | 1020.7 |
| 20260505075004 | 24 | 5 | 3.2 | 16.1 | 0.00 | 0.00 | 0.00 | 36 | 1020.5 |
| 20260505074005 | 24 | 343 | 3.2 | 12.9 | 0.00 | 0.00 | 0.00 | 35 | 1020.4 |
| 20260505073004 | 25 | 329 | 4.8 | 14.5 | 0.00 | 0.00 | 0.00 | 35 | 1020.4 |
| 20260505072004 | 25 | 24 | 3.2 | 14.5 | 0.00 | 0.00 | 0.00 | 35 | 1020.5 |
| 20260505071005 | 25 | 1 | 6.4 | 14.5 | 0.00 | 0.00 | 0.00 | 34 | 1020.4 |
| 20260505070004 | 25 | 3 | 6.4 | 11.3 | 0.00 | 0.00 | 0.00 | 31 | 1020.5 |
| 20260505065004 | 25 | 354 | 4.8 | 12.9 | 0.00 | 0.00 | 0.00 | 31 | 1020.4 |
| 20260505064004 | 25 | 356 | 6.4 | 12.9 | 0.00 | 0.00 | 0.00 | 32 | 1020.4 |
| 20260505063004 | 25 | 351 | 8.0 | 12.9 | 0.00 | 0.00 | 0.00 | 32 | 1020.5 |
| 20260505062005 | 25 | 341 | 3.2 | 12.9 | 0.00 | 0.00 | 0.00 | 30 | 1020.4 |
| 20260505061004 | 24 | 296 | 6.4 | 12.9 | 0.00 | 0.00 | 0.00 | 33 | 1020.5 |
| 20260505060005 | 25 | 338 | 4.8 | 14.5 | 0.00 | 0.00 | 0.00 | 32 | 1020.5 |
| 20260505055004 | 25 | 94 | 3.2 | 11.3 | 0.00 | 0.00 | 0.00 | 30 | 1020.6 |
| 20260505054004 | 23 | 279 | 3.2 | 11.3 | 0.00 | 0.00 | 0.00 | 31 | 1020.7 |
| 20260505053005 | 24 | 326 | 1.6 | 11.3 | 0.00 | 0.00 | 0.00 | 31 | 1020.7 |
| 20260505052004 | 24 | 280 | 4.8 | 9.7 | 0.00 | 0.00 | 0.00 | 30 | 1020.6 |
| 20260505051005 | 23 | 288 | 6.4 | 12.9 | 0.00 | 0.00 | 0.00 | 29 | 1020.9 |
| 20260505041004 | 21 | 283 | 3.2 | 11.3 | 0.00 | 0.00 | 0.00 | 30 | 1021.8 |
| 20260505040005 | 21 | 268 | 3.2 | 12.9 | 0.00 | 0.00 | 0.00 | 30 | 1021.8 |
| 20260505035004 | 22 | 269 | 3.2 | 8.0 | 0.00 | 0.00 | 0.00 | 25 | 1022.0 |
| 20260505034005 | 22 | 258 | 4.8 | 16.1 | 0.00 | 0.00 | 0.00 | 23 | 1022.1 |
| 20260505033004 | 21 | 265 | 9.7 | 16.1 | 0.00 | 0.00 | 0.00 | 21 | 1022.1 |
| 20260505032004 | 21 | 240 | 3.2 | 12.9 | 0.00 | 0.00 | 0.00 | 18 | 1022.4 |
| 20260505031004 | 21 | 229 | 6.4 | 14.5 | 0.00 | 0.00 | 0.00 | 16 | 1022.4 |
| 20260505030004 | 21 | 245 | 6.4 | 12.9 | 0.00 | 0.00 | 0.00 | 13 | 1022.4 |
| 20260505025004 | 21 | 307 | 6.4 | 12.9 | 0.00 | 0.00 | 0.00 | 11 | 1022.6 |
| 20260505024004 | 21 | 237 | 3.2 | 14.5 | 0.00 | 0.00 | 0.00 | 10 | 1022.5 |
| 20260505023004 | 20 | 232 | 3.2 | 12.9 | 0.00 | 0.00 | 0.00 | 10 | 1022.6 |
| 20260505022004 | 21 | 236 | 6.4 | 12.9 | 0.00 | 0.00 | 0.00 | 10 | 1022.5 |
| 20260505021004 | 20 | 215 | 6.4 | 16.1 | 0.00 | 0.00 | 0.00 | 10 | 1022.6 |
| 20260505020004 | 19 | 229 | 6.4 | 17.7 | 0.00 | 0.00 | 0.00 | 10 | 1022.6 |
| 20260505015004 | 18 | 255 | 6.4 | 12.9 | 0.00 | 0.00 | 0.00 | 10 | 1022.7 |
| 20260505014004 | 18 | 242 | 6.4 | 12.9 | 0.00 | 0.00 | 0.00 | 10 | 1022.7 |
| 20260505013005 | 17 | 241 | 6.4 | 12.9 | 0.00 | 0.00 | 0.00 | 10 | 1022.8 |
| 20260505012004 | 17 | 252 | 6.4 | 16.1 | 0.00 | 0.00 | 0.00 | 10 | 1022.9 |
| 20260505011004 | 16 | 269 | 6.4 | 16.1 | 0.00 | 0.00 | 0.00 | 10 | 1022.8 |
| 20260505010005 | 16 | 246 | 4.8 | 17.7 | 0.00 | 0.00 | 0.00 | 10 | 1022.8 |
| 20260505005004 | 15 | 229 | 8.0 | 19.3 | 0.00 | 0.00 | 0.00 | 10 | 1022.7 |
| 20260505004004 | 15 | 244 | 8.0 | 16.1 | 0.00 | 0.00 | 0.00 | 10 | 1022.6 |
| 20260505003005 | 8 | 256 | 6.4 | 14.5 | 0.00 | 0.00 | 0.00 | 10 | 1022.8 |
| 20260505002004 | 15 | 256 | 8.0 | 12.9 | 0.00 | 0.00 | 0.00 | 10 | 1022.5 |
| 20260505001004 | 13 | 263 | 3.2 | 12.9 | 0.00 | 0.00 | 0.00 | 10 | 1022.5 |
| 20260505000005 | 13 | 256 | 4.8 | 14.5 | 0.00 | 0.00 | 0.00 | 10 | 1022.4 |
| 20260504235003 | 13 | 273 | 6.4 | 14.5 | 0.00 | 0.00 | 0.00 | 10 | 1022.3 |
| 20260504234004 | 12 | 268 | 6.4 | 11.3 | 0.00 | 0.00 | 0.00 | 10 | 1022.2 |
| 20260504233004 | 11 | 271 | 3.2 | 11.3 | 0.00 | 0.00 | 0.00 | 10 | 1022.0 |
| 20260504232004 | 11 | 273 | 4.8 | 11.3 | 0.00 | 0.00 | 0.00 | 10 | 1021.9 |
| 20260504231004 | 11 | 293 | 4.8 | 8.0 | 0.00 | 0.00 | 0.00 | 10 | 1021.9 |
| 20260504230004 | 10 | 282 | 3.2 | 6.4 | 0.00 | 0.00 | 0.00 | 10 | 1021.7 |